FENGYUN 1C DEB

Satellite information

Favourite Embed

Satellite Type and Status

DEBRISIN ORBIT

Key statistics

Satellite FENGYUN 1C DEB at a glance.

Uptime

9659

Days in orbit

Revolutions

≈ 14.1

Per day

Orbit

SSO

Sun Synchronous Orbit

Inclination

98.8

Latest

Satellite identification and parameters

Extended collection of information and parameters for FENGYUN 1C DEB.

Object identification

Identified? True

Debris? True

Object name: FENGYUN 1C DEB

International designator: 1999-025EVV

Object number (NORAD): 38829

Object ID (CCSDS): 38829

Country: PEOPLES REPUBLIC OF CHINA (PRC)

Current information (Y/N): Y

RCS size: SMALL

Orbital parameters

Period: 102.199 minutes

Inclination: 98.7553 deg

SMA: 7240.893 km

Apoapsis: 891.817 km

Periapsis: 833.7 km

RAAN: 292.535 deg

Eccentricy: 0.0040131

Argument of periapsis: 232.5411 deg

Mean anomaly: 127.2106 deg

Mean motion: 14.09011576 rev/day

Mean motion (dot): 0.00002025 rev/day2

B* drag term: 0.0011851599 1/REarth

Two-line elements (TLE)

Creation date: Oct. 2, 2025, 3:26 a.m.

Reference frame: TEME

Reference center: EARTH

Epoch: Oct. 1, 2025, 11:50 a.m. UTC

TLE line 0: 0 FENGYUN 1C DEB

TLE line 1: 1 38829U 99025EVV 25274.49362970 .00002025 00000-0 11852-2 0 9993

TLE line 2: 2 38829 98.7553 292.5350 0040131 232.5411 127.2106 14.09011576631151

Live tracking on map

Real-time ground track for satellite FENGYUN 1C DEB.

In-orbit conjunctions

A list of the most updated potential collisions computed for object FENGYUN 1C DEB.

Target Orbit TCA Probability of collision Miss distance Type
CZ-6A DEB SSO 2025-08-04 02:27:03 0.0007221083 67.0 (m) DEBRIS
DMSP 5D-2 F8 (USA 26) SSO 2025-04-01 16:40:57 0.004751159 50.0 (m) PAYLOAD
METEOR 1-19 LEO 2025-02-16 12:27:56 0.000249832 186.0 (m) PAYLOAD

Associated space launch

Chinese polar orbiting meteorological satellite

FENGYUN 1C DEB was lifted into orbit during the mission ‘Long March 4B | Feng Yun 1C’, on board a Long March 4B space rocket.

The launch took place on May 10, 1999, 1:33 a.m. from Launch Complex 7.

For more information about the launch, click the button.

Launch to space Long March 4B | Feng Yun 1C
Long March 4B | Feng Yun 1C

Agency: N/A

Status: Launch Successful

Launch date: May 10, 1999, 1:33 a.m. UTC

Rocket: Long March 4B

Launch pad: Launch Complex 7

Location: Taiyuan Satellite Launch Center, People's Republic of China

...

Latest news about this satellite

There are no fresh news available about this satellite. Check back as we update our databases every day.


Newsletter sign-up

Weekly statistics, charts and insights to help you stay on top of the space industry.